Location: A�t Bou Chrif
(32.7193°N, 5.2385°W)
Time: 04:17:49
(UTC+00:00)

Gbstr 26 Del rocket - Pass Details

Date: 08 August 2020
Orbit: 493 x 1263 km, 51.8° (Epoch: 20 September)

Event Time Altitude Azimuth Distance (km) Brightness Sun altitude
Rises 20:02:31 0° 313° (NW) 2,642 8.0 -10.5°
Reaches altitude 10° 20:04:45 10° 312° (NW) 1,710 6.7 -10.9°
Maximum altitude 20:08:31 79° 226° (SW) 503 2.6 -11.6°
Enters shadow 20:11:19 17° 140° (SE) 1,316 4.2 -12.1°
